﻿_id,datum,uhrzeit_start,uhrzeit_ende,zaehlstelle,richtung_1,richtung_2,gesamt
1,2022.03.01,00:00,00:15,Arnulf,1,0,1
2,2022.03.01,00:15,00:30,Arnulf,0,0,0
3,2022.03.01,00:30,00:45,Arnulf,0,0,0
4,2022.03.01,00:45,01:00,Arnulf,0,0,0
5,2022.03.01,01:00,01:15,Arnulf,0,0,0
6,2022.03.01,01:15,01:30,Arnulf,0,0,0
7,2022.03.01,01:30,01:45,Arnulf,0,0,0
8,2022.03.01,01:45,02:00,Arnulf,1,0,1
9,2022.03.01,02:00,02:15,Arnulf,0,0,0
10,2022.03.01,02:15,02:30,Arnulf,0,0,0
11,2022.03.01,02:30,02:45,Arnulf,0,0,0
12,2022.03.01,02:45,03:00,Arnulf,0,0,0
13,2022.03.01,03:00,03:15,Arnulf,0,0,0
14,2022.03.01,03:15,03:30,Arnulf,0,0,0
15,2022.03.01,03:30,03:45,Arnulf,1,0,1
16,2022.03.01,03:45,04:00,Arnulf,1,0,1
17,2022.03.01,04:00,04:15,Arnulf,0,0,0
18,2022.03.01,04:15,04:30,Arnulf,0,0,0
19,2022.03.01,04:30,04:45,Arnulf,0,0,0
20,2022.03.01,04:45,05:00,Arnulf,0,0,0
21,2022.03.01,05:00,05:15,Arnulf,0,0,0
22,2022.03.01,05:15,05:30,Arnulf,1,0,1
23,2022.03.01,05:30,05:45,Arnulf,2,0,2
24,2022.03.01,05:45,06:00,Arnulf,3,0,3
25,2022.03.01,06:00,06:15,Arnulf,2,0,2
26,2022.03.01,06:15,06:30,Arnulf,5,0,5
27,2022.03.01,06:30,06:45,Arnulf,4,0,4
28,2022.03.01,06:45,07:00,Arnulf,8,0,8
29,2022.03.01,07:00,07:15,Arnulf,14,0,14
30,2022.03.01,07:15,07:30,Arnulf,17,0,17
31,2022.03.01,07:30,07:45,Arnulf,11,0,11
32,2022.03.01,07:45,08:00,Arnulf,30,0,30
33,2022.03.01,08:00,08:15,Arnulf,23,0,23
34,2022.03.01,08:15,08:30,Arnulf,34,0,34
35,2022.03.01,08:30,08:45,Arnulf,21,0,21
36,2022.03.01,08:45,09:00,Arnulf,24,0,24
37,2022.03.01,09:00,09:15,Arnulf,24,0,24
38,2022.03.01,09:15,09:30,Arnulf,17,0,17
39,2022.03.01,09:30,09:45,Arnulf,12,0,12
40,2022.03.01,09:45,10:00,Arnulf,11,0,11
41,2022.03.01,10:00,10:15,Arnulf,8,0,8
42,2022.03.01,10:15,10:30,Arnulf,8,0,8
43,2022.03.01,10:30,10:45,Arnulf,10,0,10
44,2022.03.01,10:45,11:00,Arnulf,10,0,10
45,2022.03.01,11:00,11:15,Arnulf,5,0,5
46,2022.03.01,11:15,11:30,Arnulf,8,0,8
47,2022.03.01,11:30,11:45,Arnulf,11,0,11
48,2022.03.01,11:45,12:00,Arnulf,10,0,10
49,2022.03.01,12:00,12:15,Arnulf,16,0,16
50,2022.03.01,12:15,12:30,Arnulf,11,0,11
51,2022.03.01,12:30,12:45,Arnulf,20,0,20
52,2022.03.01,12:45,13:00,Arnulf,16,0,16
53,2022.03.01,13:00,13:15,Arnulf,16,0,16
54,2022.03.01,13:15,13:30,Arnulf,7,0,7
55,2022.03.01,13:30,13:45,Arnulf,12,0,12
56,2022.03.01,13:45,14:00,Arnulf,12,0,12
57,2022.03.01,14:00,14:15,Arnulf,14,0,14
58,2022.03.01,14:15,14:30,Arnulf,15,0,15
59,2022.03.01,14:30,14:45,Arnulf,19,0,19
60,2022.03.01,14:45,15:00,Arnulf,9,0,9
61,2022.03.01,15:00,15:15,Arnulf,6,0,6
62,2022.03.01,15:15,15:30,Arnulf,13,0,13
63,2022.03.01,15:30,15:45,Arnulf,8,0,8
64,2022.03.01,15:45,16:00,Arnulf,9,0,9
65,2022.03.01,16:00,16:15,Arnulf,16,0,16
66,2022.03.01,16:15,16:30,Arnulf,16,0,16
67,2022.03.01,16:30,16:45,Arnulf,12,0,12
68,2022.03.01,16:45,17:00,Arnulf,33,0,33
69,2022.03.01,17:00,17:15,Arnulf,8,0,8
70,2022.03.01,17:15,17:30,Arnulf,29,0,29
71,2022.03.01,17:30,17:45,Arnulf,21,0,21
72,2022.03.01,17:45,18:00,Arnulf,18,0,18
73,2022.03.01,18:00,18:15,Arnulf,32,0,32
74,2022.03.01,18:15,18:30,Arnulf,27,0,27
75,2022.03.01,18:30,18:45,Arnulf,28,0,28
76,2022.03.01,18:45,19:00,Arnulf,24,0,24
77,2022.03.01,19:00,19:15,Arnulf,12,0,12
78,2022.03.01,19:15,19:30,Arnulf,13,0,13
79,2022.03.01,19:30,19:45,Arnulf,15,0,15
80,2022.03.01,19:45,20:00,Arnulf,10,0,10
81,2022.03.01,20:00,20:15,Arnulf,2,0,2
82,2022.03.01,20:15,20:30,Arnulf,4,0,4
83,2022.03.01,20:30,20:45,Arnulf,5,0,5
84,2022.03.01,20:45,21:00,Arnulf,6,0,6
85,2022.03.01,21:00,21:15,Arnulf,9,0,9
86,2022.03.01,21:15,21:30,Arnulf,4,0,4
87,2022.03.01,21:30,21:45,Arnulf,3,0,3
88,2022.03.01,21:45,22:00,Arnulf,6,0,6
89,2022.03.01,22:00,22:15,Arnulf,7,0,7
90,2022.03.01,22:15,22:30,Arnulf,1,0,1
91,2022.03.01,22:30,22:45,Arnulf,3,0,3
92,2022.03.01,22:45,23:00,Arnulf,2,0,2
93,2022.03.01,23:00,23:15,Arnulf,4,0,4
94,2022.03.01,23:15,23:30,Arnulf,3,0,3
95,2022.03.01,23:30,23:45,Arnulf,3,0,3
96,2022.03.01,23:45,00:00,Arnulf,2,0,2
97,2022.03.02,00:00,00:15,Arnulf,1,0,1
98,2022.03.02,00:15,00:30,Arnulf,0,0,0
99,2022.03.02,00:30,00:45,Arnulf,0,0,0
100,2022.03.02,00:45,01:00,Arnulf,1,0,1
101,2022.03.02,01:00,01:15,Arnulf,0,0,0
102,2022.03.02,01:15,01:30,Arnulf,2,0,2
103,2022.03.02,01:30,01:45,Arnulf,0,0,0
104,2022.03.02,01:45,02:00,Arnulf,0,0,0
105,2022.03.02,02:00,02:15,Arnulf,0,0,0
106,2022.03.02,02:15,02:30,Arnulf,0,0,0
107,2022.03.02,02:30,02:45,Arnulf,0,0,0
108,2022.03.02,02:45,03:00,Arnulf,0,0,0
109,2022.03.02,03:00,03:15,Arnulf,1,0,1
110,2022.03.02,03:15,03:30,Arnulf,0,0,0
111,2022.03.02,03:30,03:45,Arnulf,0,0,0
112,2022.03.02,03:45,04:00,Arnulf,0,0,0
113,2022.03.02,04:00,04:15,Arnulf,0,0,0
114,2022.03.02,04:15,04:30,Arnulf,0,0,0
115,2022.03.02,04:30,04:45,Arnulf,0,0,0
116,2022.03.02,04:45,05:00,Arnulf,0,0,0
117,2022.03.02,05:00,05:15,Arnulf,1,0,1
118,2022.03.02,05:15,05:30,Arnulf,1,0,1
119,2022.03.02,05:30,05:45,Arnulf,1,0,1
120,2022.03.02,05:45,06:00,Arnulf,1,0,1
121,2022.03.02,06:00,06:15,Arnulf,7,0,7
122,2022.03.02,06:15,06:30,Arnulf,2,0,2
123,2022.03.02,06:30,06:45,Arnulf,7,0,7
124,2022.03.02,06:45,07:00,Arnulf,6,0,6
125,2022.03.02,07:00,07:15,Arnulf,8,0,8
126,2022.03.02,07:15,07:30,Arnulf,9,0,9
127,2022.03.02,07:30,07:45,Arnulf,14,0,14
128,2022.03.02,07:45,08:00,Arnulf,29,0,29
129,2022.03.02,08:00,08:15,Arnulf,29,0,29
130,2022.03.02,08:15,08:30,Arnulf,43,0,43
131,2022.03.02,08:30,08:45,Arnulf,25,0,25
132,2022.03.02,08:45,09:00,Arnulf,25,0,25
133,2022.03.02,09:00,09:15,Arnulf,19,0,19
134,2022.03.02,09:15,09:30,Arnulf,23,0,23
135,2022.03.02,09:30,09:45,Arnulf,9,0,9
136,2022.03.02,09:45,10:00,Arnulf,20,0,20
137,2022.03.02,10:00,10:15,Arnulf,15,0,15
138,2022.03.02,10:15,10:30,Arnulf,7,0,7
139,2022.03.02,10:30,10:45,Arnulf,10,0,10
140,2022.03.02,10:45,11:00,Arnulf,18,0,18
141,2022.03.02,11:00,11:15,Arnulf,13,0,13
142,2022.03.02,11:15,11:30,Arnulf,11,0,11
143,2022.03.02,11:30,11:45,Arnulf,11,0,11
144,2022.03.02,11:45,12:00,Arnulf,5,0,5
145,2022.03.02,12:00,12:15,Arnulf,10,0,10
146,2022.03.02,12:15,12:30,Arnulf,16,0,16
147,2022.03.02,12:30,12:45,Arnulf,13,0,13
148,2022.03.02,12:45,13:00,Arnulf,10,0,10
149,2022.03.02,13:00,13:15,Arnulf,11,0,11
150,2022.03.02,13:15,13:30,Arnulf,18,0,18
151,2022.03.02,13:30,13:45,Arnulf,13,0,13
152,2022.03.02,13:45,14:00,Arnulf,17,0,17
153,2022.03.02,14:00,14:15,Arnulf,5,0,5
154,2022.03.02,14:15,14:30,Arnulf,8,0,8
155,2022.03.02,14:30,14:45,Arnulf,10,0,10
156,2022.03.02,14:45,15:00,Arnulf,8,0,8
157,2022.03.02,15:00,15:15,Arnulf,13,0,13
158,2022.03.02,15:15,15:30,Arnulf,12,0,12
159,2022.03.02,15:30,15:45,Arnulf,16,0,16
160,2022.03.02,15:45,16:00,Arnulf,21,0,21
161,2022.03.02,16:00,16:15,Arnulf,14,0,14
162,2022.03.02,16:15,16:30,Arnulf,11,0,11
163,2022.03.02,16:30,16:45,Arnulf,19,0,19
164,2022.03.02,16:45,17:00,Arnulf,24,0,24
165,2022.03.02,17:00,17:15,Arnulf,15,0,15
166,2022.03.02,17:15,17:30,Arnulf,18,0,18
167,2022.03.02,17:30,17:45,Arnulf,36,0,36
168,2022.03.02,17:45,18:00,Arnulf,57,0,57
169,2022.03.02,18:00,18:15,Arnulf,46,0,46
170,2022.03.02,18:15,18:30,Arnulf,34,0,34
171,2022.03.02,18:30,18:45,Arnulf,25,0,25
172,2022.03.02,18:45,19:00,Arnulf,32,0,32
173,2022.03.02,19:00,19:15,Arnulf,14,0,14
174,2022.03.02,19:15,19:30,Arnulf,18,0,18
175,2022.03.02,19:30,19:45,Arnulf,12,0,12
176,2022.03.02,19:45,20:00,Arnulf,10,0,10
177,2022.03.02,20:00,20:15,Arnulf,11,0,11
178,2022.03.02,20:15,20:30,Arnulf,6,0,6
179,2022.03.02,20:30,20:45,Arnulf,7,0,7
180,2022.03.02,20:45,21:00,Arnulf,4,0,4
181,2022.03.02,21:00,21:15,Arnulf,5,0,5
182,2022.03.02,21:15,21:30,Arnulf,3,0,3
183,2022.03.02,21:30,21:45,Arnulf,3,0,3
184,2022.03.02,21:45,22:00,Arnulf,2,0,2
185,2022.03.02,22:00,22:15,Arnulf,3,0,3
186,2022.03.02,22:15,22:30,Arnulf,4,0,4
187,2022.03.02,22:30,22:45,Arnulf,7,0,7
188,2022.03.02,22:45,23:00,Arnulf,3,0,3
189,2022.03.02,23:00,23:15,Arnulf,1,0,1
190,2022.03.02,23:15,23:30,Arnulf,0,0,0
191,2022.03.02,23:30,23:45,Arnulf,1,0,1
192,2022.03.02,23:45,00:00,Arnulf,1,0,1
193,2022.03.03,00:00,00:15,Arnulf,1,0,1
194,2022.03.03,00:15,00:30,Arnulf,0,0,0
195,2022.03.03,00:30,00:45,Arnulf,0,0,0
196,2022.03.03,00:45,01:00,Arnulf,0,0,0
197,2022.03.03,01:00,01:15,Arnulf,0,0,0
198,2022.03.03,01:15,01:30,Arnulf,0,0,0
199,2022.03.03,01:30,01:45,Arnulf,0,0,0
200,2022.03.03,01:45,02:00,Arnulf,1,0,1
201,2022.03.03,02:00,02:15,Arnulf,1,0,1
202,2022.03.03,02:15,02:30,Arnulf,0,0,0
203,2022.03.03,02:30,02:45,Arnulf,1,0,1
204,2022.03.03,02:45,03:00,Arnulf,0,0,0
205,2022.03.03,03:00,03:15,Arnulf,0,0,0
206,2022.03.03,03:15,03:30,Arnulf,0,0,0
207,2022.03.03,03:30,03:45,Arnulf,0,0,0
208,2022.03.03,03:45,04:00,Arnulf,0,0,0
209,2022.03.03,04:00,04:15,Arnulf,0,0,0
210,2022.03.03,04:15,04:30,Arnulf,0,0,0
211,2022.03.03,04:30,04:45,Arnulf,1,0,1
212,2022.03.03,04:45,05:00,Arnulf,0,0,0
213,2022.03.03,05:00,05:15,Arnulf,1,0,1
214,2022.03.03,05:15,05:30,Arnulf,2,0,2
215,2022.03.03,05:30,05:45,Arnulf,1,0,1
216,2022.03.03,05:45,06:00,Arnulf,1,0,1
217,2022.03.03,06:00,06:15,Arnulf,3,0,3
218,2022.03.03,06:15,06:30,Arnulf,3,0,3
219,2022.03.03,06:30,06:45,Arnulf,12,0,12
220,2022.03.03,06:45,07:00,Arnulf,10,0,10
221,2022.03.03,07:00,07:15,Arnulf,8,0,8
222,2022.03.03,07:15,07:30,Arnulf,13,0,13
223,2022.03.03,07:30,07:45,Arnulf,21,0,21
224,2022.03.03,07:45,08:00,Arnulf,26,0,26
225,2022.03.03,08:00,08:15,Arnulf,17,0,17
226,2022.03.03,08:15,08:30,Arnulf,37,0,37
227,2022.03.03,08:30,08:45,Arnulf,26,0,26
228,2022.03.03,08:45,09:00,Arnulf,5,0,5
229,2022.03.03,09:00,09:15,Arnulf,31,0,31
230,2022.03.03,09:15,09:30,Arnulf,25,0,25
231,2022.03.03,09:30,09:45,Arnulf,11,0,11
232,2022.03.03,09:45,10:00,Arnulf,12,0,12
233,2022.03.03,10:00,10:15,Arnulf,12,0,12
234,2022.03.03,10:15,10:30,Arnulf,14,0,14
235,2022.03.03,10:30,10:45,Arnulf,11,0,11
236,2022.03.03,10:45,11:00,Arnulf,11,0,11
237,2022.03.03,11:00,11:15,Arnulf,10,0,10
238,2022.03.03,11:15,11:30,Arnulf,12,0,12
239,2022.03.03,11:30,11:45,Arnulf,17,0,17
240,2022.03.03,11:45,12:00,Arnulf,13,0,13
241,2022.03.03,12:00,12:15,Arnulf,21,0,21
242,2022.03.03,12:15,12:30,Arnulf,16,0,16
243,2022.03.03,12:30,12:45,Arnulf,12,0,12
244,2022.03.03,12:45,13:00,Arnulf,11,0,11
245,2022.03.03,13:00,13:15,Arnulf,13,0,13
246,2022.03.03,13:15,13:30,Arnulf,10,0,10
247,2022.03.03,13:30,13:45,Arnulf,17,0,17
248,2022.03.03,13:45,14:00,Arnulf,14,0,14
249,2022.03.03,14:00,14:15,Arnulf,11,0,11
250,2022.03.03,14:15,14:30,Arnulf,6,0,6
251,2022.03.03,14:30,14:45,Arnulf,14,0,14
252,2022.03.03,14:45,15:00,Arnulf,15,0,15
253,2022.03.03,15:00,15:15,Arnulf,15,0,15
254,2022.03.03,15:15,15:30,Arnulf,17,0,17
255,2022.03.03,15:30,15:45,Arnulf,8,0,8
256,2022.03.03,15:45,16:00,Arnulf,19,0,19
257,2022.03.03,16:00,16:15,Arnulf,18,0,18
258,2022.03.03,16:15,16:30,Arnulf,28,0,28
259,2022.03.03,16:30,16:45,Arnulf,15,0,15
260,2022.03.03,16:45,17:00,Arnulf,19,0,19
261,2022.03.03,17:00,17:15,Arnulf,26,0,26
262,2022.03.03,17:15,17:30,Arnulf,23,0,23
263,2022.03.03,17:30,17:45,Arnulf,32,0,32
264,2022.03.03,17:45,18:00,Arnulf,15,0,15
265,2022.03.03,18:00,18:15,Arnulf,23,0,23
266,2022.03.03,18:15,18:30,Arnulf,32,0,32
267,2022.03.03,18:30,18:45,Arnulf,19,0,19
268,2022.03.03,18:45,19:00,Arnulf,19,0,19
269,2022.03.03,19:00,19:15,Arnulf,16,0,16
270,2022.03.03,19:15,19:30,Arnulf,17,0,17
271,2022.03.03,19:30,19:45,Arnulf,13,0,13
272,2022.03.03,19:45,20:00,Arnulf,9,0,9
273,2022.03.03,20:00,20:15,Arnulf,4,0,4
274,2022.03.03,20:15,20:30,Arnulf,5,0,5
275,2022.03.03,20:30,20:45,Arnulf,4,0,4
276,2022.03.03,20:45,21:00,Arnulf,3,0,3
277,2022.03.03,21:00,21:15,Arnulf,9,0,9
278,2022.03.03,21:15,21:30,Arnulf,1,0,1
279,2022.03.03,21:30,21:45,Arnulf,1,0,1
280,2022.03.03,21:45,22:00,Arnulf,5,0,5
281,2022.03.03,22:00,22:15,Arnulf,5,0,5
282,2022.03.03,22:15,22:30,Arnulf,1,0,1
283,2022.03.03,22:30,22:45,Arnulf,2,0,2
284,2022.03.03,22:45,23:00,Arnulf,3,0,3
285,2022.03.03,23:00,23:15,Arnulf,5,0,5
286,2022.03.03,23:15,23:30,Arnulf,3,0,3
287,2022.03.03,23:30,23:45,Arnulf,1,0,1
288,2022.03.03,23:45,00:00,Arnulf,1,0,1
289,2022.03.04,00:00,00:15,Arnulf,1,0,1
290,2022.03.04,00:15,00:30,Arnulf,0,0,0
291,2022.03.04,00:30,00:45,Arnulf,1,0,1
292,2022.03.04,00:45,01:00,Arnulf,1,0,1
293,2022.03.04,01:00,01:15,Arnulf,0,0,0
294,2022.03.04,01:15,01:30,Arnulf,0,0,0
295,2022.03.04,01:30,01:45,Arnulf,2,0,2
296,2022.03.04,01:45,02:00,Arnulf,0,0,0
297,2022.03.04,02:00,02:15,Arnulf,0,0,0
298,2022.03.04,02:15,02:30,Arnulf,0,0,0
299,2022.03.04,02:30,02:45,Arnulf,0,0,0
300,2022.03.04,02:45,03:00,Arnulf,0,0,0
301,2022.03.04,03:00,03:15,Arnulf,0,0,0
302,2022.03.04,03:15,03:30,Arnulf,0,0,0
303,2022.03.04,03:30,03:45,Arnulf,0,0,0
304,2022.03.04,03:45,04:00,Arnulf,1,0,1
305,2022.03.04,04:00,04:15,Arnulf,0,0,0
306,2022.03.04,04:15,04:30,Arnulf,3,0,3
307,2022.03.04,04:30,04:45,Arnulf,0,0,0
308,2022.03.04,04:45,05:00,Arnulf,1,0,1
309,2022.03.04,05:00,05:15,Arnulf,1,0,1
310,2022.03.04,05:15,05:30,Arnulf,2,0,2
311,2022.03.04,05:30,05:45,Arnulf,2,0,2
312,2022.03.04,05:45,06:00,Arnulf,3,0,3
313,2022.03.04,06:00,06:15,Arnulf,2,0,2
314,2022.03.04,06:15,06:30,Arnulf,4,0,4
315,2022.03.04,06:30,06:45,Arnulf,3,0,3
316,2022.03.04,06:45,07:00,Arnulf,6,0,6
317,2022.03.04,07:00,07:15,Arnulf,9,0,9
318,2022.03.04,07:15,07:30,Arnulf,11,0,11
319,2022.03.04,07:30,07:45,Arnulf,7,0,7
320,2022.03.04,07:45,08:00,Arnulf,15,0,15
321,2022.03.04,08:00,08:15,Arnulf,20,0,20
322,2022.03.04,08:15,08:30,Arnulf,26,0,26
323,2022.03.04,08:30,08:45,Arnulf,17,0,17
324,2022.03.04,08:45,09:00,Arnulf,21,0,21
325,2022.03.04,09:00,09:15,Arnulf,22,0,22
326,2022.03.04,09:15,09:30,Arnulf,18,0,18
327,2022.03.04,09:30,09:45,Arnulf,15,0,15
328,2022.03.04,09:45,10:00,Arnulf,13,0,13
329,2022.03.04,10:00,10:15,Arnulf,15,0,15
330,2022.03.04,10:15,10:30,Arnulf,18,0,18
331,2022.03.04,10:30,10:45,Arnulf,10,0,10
332,2022.03.04,10:45,11:00,Arnulf,15,0,15
333,2022.03.04,11:00,11:15,Arnulf,7,0,7
334,2022.03.04,11:15,11:30,Arnulf,12,0,12
335,2022.03.04,11:30,11:45,Arnulf,13,0,13
336,2022.03.04,11:45,12:00,Arnulf,28,0,28
337,2022.03.04,12:00,12:15,Arnulf,18,0,18
338,2022.03.04,12:15,12:30,Arnulf,9,0,9
339,2022.03.04,12:30,12:45,Arnulf,15,0,15
340,2022.03.04,12:45,13:00,Arnulf,11,0,11
341,2022.03.04,13:00,13:15,Arnulf,8,0,8
342,2022.03.04,13:15,13:30,Arnulf,10,0,10
343,2022.03.04,13:30,13:45,Arnulf,14,0,14
344,2022.03.04,13:45,14:00,Arnulf,14,0,14
345,2022.03.04,14:00,14:15,Arnulf,11,0,11
346,2022.03.04,14:15,14:30,Arnulf,16,0,16
347,2022.03.04,14:30,14:45,Arnulf,11,0,11
348,2022.03.04,14:45,15:00,Arnulf,5,0,5
349,2022.03.04,15:00,15:15,Arnulf,11,0,11
350,2022.03.04,15:15,15:30,Arnulf,18,0,18
351,2022.03.04,15:30,15:45,Arnulf,15,0,15
352,2022.03.04,15:45,16:00,Arnulf,22,0,22
353,2022.03.04,16:00,16:15,Arnulf,16,0,16
354,2022.03.04,16:15,16:30,Arnulf,14,0,14
355,2022.03.04,16:30,16:45,Arnulf,29,0,29
356,2022.03.04,16:45,17:00,Arnulf,17,0,17
357,2022.03.04,17:00,17:15,Arnulf,10,0,10
358,2022.03.04,17:15,17:30,Arnulf,20,0,20
359,2022.03.04,17:30,17:45,Arnulf,23,0,23
360,2022.03.04,17:45,18:00,Arnulf,16,0,16
361,2022.03.04,18:00,18:15,Arnulf,20,0,20
362,2022.03.04,18:15,18:30,Arnulf,30,0,30
363,2022.03.04,18:30,18:45,Arnulf,16,0,16
364,2022.03.04,18:45,19:00,Arnulf,20,0,20
365,2022.03.04,19:00,19:15,Arnulf,9,0,9
366,2022.03.04,19:15,19:30,Arnulf,9,0,9
367,2022.03.04,19:30,19:45,Arnulf,12,0,12
368,2022.03.04,19:45,20:00,Arnulf,7,0,7
369,2022.03.04,20:00,20:15,Arnulf,12,0,12
370,2022.03.04,20:15,20:30,Arnulf,9,0,9
371,2022.03.04,20:30,20:45,Arnulf,7,0,7
372,2022.03.04,20:45,21:00,Arnulf,6,0,6
373,2022.03.04,21:00,21:15,Arnulf,4,0,4
374,2022.03.04,21:15,21:30,Arnulf,7,0,7
375,2022.03.04,21:30,21:45,Arnulf,1,0,1
376,2022.03.04,21:45,22:00,Arnulf,1,0,1
377,2022.03.04,22:00,22:15,Arnulf,2,0,2
378,2022.03.04,22:15,22:30,Arnulf,3,0,3
379,2022.03.04,22:30,22:45,Arnulf,5,0,5
380,2022.03.04,22:45,23:00,Arnulf,2,0,2
381,2022.03.04,23:00,23:15,Arnulf,1,0,1
382,2022.03.04,23:15,23:30,Arnulf,1,0,1
383,2022.03.04,23:30,23:45,Arnulf,0,0,0
384,2022.03.04,23:45,00:00,Arnulf,2,0,2
385,2022.03.05,00:00,00:15,Arnulf,2,0,2
386,2022.03.05,00:15,00:30,Arnulf,3,0,3
387,2022.03.05,00:30,00:45,Arnulf,2,0,2
388,2022.03.05,00:45,01:00,Arnulf,0,0,0
389,2022.03.05,01:00,01:15,Arnulf,0,0,0
390,2022.03.05,01:15,01:30,Arnulf,2,0,2
391,2022.03.05,01:30,01:45,Arnulf,0,0,0
392,2022.03.05,01:45,02:00,Arnulf,0,0,0
393,2022.03.05,02:00,02:15,Arnulf,0,0,0
394,2022.03.05,02:15,02:30,Arnulf,0,0,0
395,2022.03.05,02:30,02:45,Arnulf,1,0,1
396,2022.03.05,02:45,03:00,Arnulf,1,0,1
397,2022.03.05,03:00,03:15,Arnulf,1,0,1
398,2022.03.05,03:15,03:30,Arnulf,1,0,1
399,2022.03.05,03:30,03:45,Arnulf,1,0,1
400,2022.03.05,03:45,04:00,Arnulf,0,0,0
401,2022.03.05,04:00,04:15,Arnulf,1,0,1
402,2022.03.05,04:15,04:30,Arnulf,1,0,1
403,2022.03.05,04:30,04:45,Arnulf,0,0,0
404,2022.03.05,04:45,05:00,Arnulf,2,0,2
405,2022.03.05,05:00,05:15,Arnulf,0,0,0
406,2022.03.05,05:15,05:30,Arnulf,0,0,0
407,2022.03.05,05:30,05:45,Arnulf,0,0,0
408,2022.03.05,05:45,06:00,Arnulf,2,0,2
409,2022.03.05,06:00,06:15,Arnulf,1,0,1
410,2022.03.05,06:15,06:30,Arnulf,4,0,4
411,2022.03.05,06:30,06:45,Arnulf,1,0,1
412,2022.03.05,06:45,07:00,Arnulf,2,0,2
413,2022.03.05,07:00,07:15,Arnulf,1,0,1
414,2022.03.05,07:15,07:30,Arnulf,4,0,4
415,2022.03.05,07:30,07:45,Arnulf,4,0,4
416,2022.03.05,07:45,08:00,Arnulf,3,0,3
417,2022.03.05,08:00,08:15,Arnulf,4,0,4
418,2022.03.05,08:15,08:30,Arnulf,2,0,2
419,2022.03.05,08:30,08:45,Arnulf,8,0,8
420,2022.03.05,08:45,09:00,Arnulf,6,0,6
421,2022.03.05,09:00,09:15,Arnulf,7,0,7
422,2022.03.05,09:15,09:30,Arnulf,9,0,9
423,2022.03.05,09:30,09:45,Arnulf,8,0,8
424,2022.03.05,09:45,10:00,Arnulf,12,0,12
425,2022.03.05,10:00,10:15,Arnulf,6,0,6
426,2022.03.05,10:15,10:30,Arnulf,18,0,18
427,2022.03.05,10:30,10:45,Arnulf,10,0,10
428,2022.03.05,10:45,11:00,Arnulf,8,0,8
429,2022.03.05,11:00,11:15,Arnulf,10,0,10
430,2022.03.05,11:15,11:30,Arnulf,14,0,14
431,2022.03.05,11:30,11:45,Arnulf,17,0,17
432,2022.03.05,11:45,12:00,Arnulf,15,0,15
433,2022.03.05,12:00,12:15,Arnulf,10,0,10
434,2022.03.05,12:15,12:30,Arnulf,14,0,14
435,2022.03.05,12:30,12:45,Arnulf,20,0,20
436,2022.03.05,12:45,13:00,Arnulf,9,0,9
437,2022.03.05,13:00,13:15,Arnulf,13,0,13
438,2022.03.05,13:15,13:30,Arnulf,1,0,1
439,2022.03.05,13:30,13:45,Arnulf,11,0,11
440,2022.03.05,13:45,14:00,Arnulf,18,0,18
441,2022.03.05,14:00,14:15,Arnulf,9,0,9
442,2022.03.05,14:15,14:30,Arnulf,16,0,16
443,2022.03.05,14:30,14:45,Arnulf,15,0,15
444,2022.03.05,14:45,15:00,Arnulf,17,0,17
445,2022.03.05,15:00,15:15,Arnulf,14,0,14
446,2022.03.05,15:15,15:30,Arnulf,7,0,7
447,2022.03.05,15:30,15:45,Arnulf,10,0,10
448,2022.03.05,15:45,16:00,Arnulf,14,0,14
449,2022.03.05,16:00,16:15,Arnulf,20,0,20
450,2022.03.05,16:15,16:30,Arnulf,16,0,16
451,2022.03.05,16:30,16:45,Arnulf,12,0,12
452,2022.03.05,16:45,17:00,Arnulf,18,0,18
453,2022.03.05,17:00,17:15,Arnulf,2,0,2
454,2022.03.05,17:15,17:30,Arnulf,9,0,9
455,2022.03.05,17:30,17:45,Arnulf,9,0,9
456,2022.03.05,17:45,18:00,Arnulf,7,0,7
457,2022.03.05,18:00,18:15,Arnulf,10,0,10
458,2022.03.05,18:15,18:30,Arnulf,5,0,5
459,2022.03.05,18:30,18:45,Arnulf,7,0,7
460,2022.03.05,18:45,19:00,Arnulf,7,0,7
461,2022.03.05,19:00,19:15,Arnulf,9,0,9
462,2022.03.05,19:15,19:30,Arnulf,10,0,10
463,2022.03.05,19:30,19:45,Arnulf,8,0,8
464,2022.03.05,19:45,20:00,Arnulf,7,0,7
465,2022.03.05,20:00,20:15,Arnulf,2,0,2
466,2022.03.05,20:15,20:30,Arnulf,3,0,3
467,2022.03.05,20:30,20:45,Arnulf,5,0,5
468,2022.03.05,20:45,21:00,Arnulf,4,0,4
469,2022.03.05,21:00,21:15,Arnulf,5,0,5
470,2022.03.05,21:15,21:30,Arnulf,6,0,6
471,2022.03.05,21:30,21:45,Arnulf,2,0,2
472,2022.03.05,21:45,22:00,Arnulf,4,0,4
473,2022.03.05,22:00,22:15,Arnulf,9,0,9
474,2022.03.05,22:15,22:30,Arnulf,1,0,1
475,2022.03.05,22:30,22:45,Arnulf,2,0,2
476,2022.03.05,22:45,23:00,Arnulf,2,0,2
477,2022.03.05,23:00,23:15,Arnulf,4,0,4
478,2022.03.05,23:15,23:30,Arnulf,2,0,2
479,2022.03.05,23:30,23:45,Arnulf,2,0,2
480,2022.03.05,23:45,00:00,Arnulf,4,0,4
481,2022.03.06,00:00,00:15,Arnulf,1,0,1
482,2022.03.06,00:15,00:30,Arnulf,1,0,1
483,2022.03.06,00:30,00:45,Arnulf,0,0,0
484,2022.03.06,00:45,01:00,Arnulf,1,0,1
485,2022.03.06,01:00,01:15,Arnulf,1,0,1
486,2022.03.06,01:15,01:30,Arnulf,0,0,0
487,2022.03.06,01:30,01:45,Arnulf,0,0,0
488,2022.03.06,01:45,02:00,Arnulf,0,0,0
489,2022.03.06,02:00,02:15,Arnulf,0,0,0
490,2022.03.06,02:15,02:30,Arnulf,2,0,2
491,2022.03.06,02:30,02:45,Arnulf,2,0,2
492,2022.03.06,02:45,03:00,Arnulf,0,0,0
493,2022.03.06,03:00,03:15,Arnulf,0,0,0
494,2022.03.06,03:15,03:30,Arnulf,0,0,0
495,2022.03.06,03:30,03:45,Arnulf,0,0,0
496,2022.03.06,03:45,04:00,Arnulf,0,0,0
497,2022.03.06,04:00,04:15,Arnulf,1,0,1
498,2022.03.06,04:15,04:30,Arnulf,0,0,0
499,2022.03.06,04:30,04:45,Arnulf,1,0,1
500,2022.03.06,04:45,05:00,Arnulf,0,0,0
501,2022.03.06,05:00,05:15,Arnulf,0,0,0
502,2022.03.06,05:15,05:30,Arnulf,1,0,1
503,2022.03.06,05:30,05:45,Arnulf,0,0,0
504,2022.03.06,05:45,06:00,Arnulf,2,0,2
505,2022.03.06,06:00,06:15,Arnulf,3,0,3
506,2022.03.06,06:15,06:30,Arnulf,1,0,1
507,2022.03.06,06:30,06:45,Arnulf,1,0,1
508,2022.03.06,06:45,07:00,Arnulf,2,0,2
509,2022.03.06,07:00,07:15,Arnulf,1,0,1
510,2022.03.06,07:15,07:30,Arnulf,3,0,3
511,2022.03.06,07:30,07:45,Arnulf,0,0,0
512,2022.03.06,07:45,08:00,Arnulf,4,0,4
513,2022.03.06,08:00,08:15,Arnulf,1,0,1
514,2022.03.06,08:15,08:30,Arnulf,1,0,1
515,2022.03.06,08:30,08:45,Arnulf,2,0,2
516,2022.03.06,08:45,09:00,Arnulf,0,0,0
517,2022.03.06,09:00,09:15,Arnulf,4,0,4
518,2022.03.06,09:15,09:30,Arnulf,6,0,6
519,2022.03.06,09:30,09:45,Arnulf,3,0,3
520,2022.03.06,09:45,10:00,Arnulf,7,0,7
521,2022.03.06,10:00,10:15,Arnulf,2,0,2
522,2022.03.06,10:15,10:30,Arnulf,10,0,10
523,2022.03.06,10:30,10:45,Arnulf,8,0,8
524,2022.03.06,10:45,11:00,Arnulf,11,0,11
525,2022.03.06,11:00,11:15,Arnulf,11,0,11
526,2022.03.06,11:15,11:30,Arnulf,7,0,7
527,2022.03.06,11:30,11:45,Arnulf,15,0,15
528,2022.03.06,11:45,12:00,Arnulf,7,0,7
529,2022.03.06,12:00,12:15,Arnulf,8,0,8
530,2022.03.06,12:15,12:30,Arnulf,13,0,13
531,2022.03.06,12:30,12:45,Arnulf,10,0,10
532,2022.03.06,12:45,13:00,Arnulf,9,0,9
533,2022.03.06,13:00,13:15,Arnulf,7,0,7
534,2022.03.06,13:15,13:30,Arnulf,29,0,29
535,2022.03.06,13:30,13:45,Arnulf,16,0,16
536,2022.03.06,13:45,14:00,Arnulf,26,0,26
537,2022.03.06,14:00,14:15,Arnulf,14,0,14
538,2022.03.06,14:15,14:30,Arnulf,24,0,24
539,2022.03.06,14:30,14:45,Arnulf,12,0,12
540,2022.03.06,14:45,15:00,Arnulf,14,0,14
541,2022.03.06,15:00,15:15,Arnulf,19,0,19
542,2022.03.06,15:15,15:30,Arnulf,17,0,17
543,2022.03.06,15:30,15:45,Arnulf,7,0,7
544,2022.03.06,15:45,16:00,Arnulf,13,0,13
545,2022.03.06,16:00,16:15,Arnulf,7,0,7
546,2022.03.06,16:15,16:30,Arnulf,6,0,6
547,2022.03.06,16:30,16:45,Arnulf,9,0,9
548,2022.03.06,16:45,17:00,Arnulf,7,0,7
549,2022.03.06,17:00,17:15,Arnulf,13,0,13
550,2022.03.06,17:15,17:30,Arnulf,11,0,11
551,2022.03.06,17:30,17:45,Arnulf,13,0,13
552,2022.03.06,17:45,18:00,Arnulf,9,0,9
553,2022.03.06,18:00,18:15,Arnulf,7,0,7
554,2022.03.06,18:15,18:30,Arnulf,6,0,6
555,2022.03.06,18:30,18:45,Arnulf,6,0,6
556,2022.03.06,18:45,19:00,Arnulf,11,0,11
557,2022.03.06,19:00,19:15,Arnulf,4,0,4
558,2022.03.06,19:15,19:30,Arnulf,6,0,6
559,2022.03.06,19:30,19:45,Arnulf,4,0,4
560,2022.03.06,19:45,20:00,Arnulf,7,0,7
561,2022.03.06,20:00,20:15,Arnulf,5,0,5
562,2022.03.06,20:15,20:30,Arnulf,2,0,2
563,2022.03.06,20:30,20:45,Arnulf,4,0,4
564,2022.03.06,20:45,21:00,Arnulf,1,0,1
565,2022.03.06,21:00,21:15,Arnulf,5,0,5
566,2022.03.06,21:15,21:30,Arnulf,6,0,6
567,2022.03.06,21:30,21:45,Arnulf,0,0,0
568,2022.03.06,21:45,22:00,Arnulf,2,0,2
569,2022.03.06,22:00,22:15,Arnulf,7,0,7
570,2022.03.06,22:15,22:30,Arnulf,2,0,2
571,2022.03.06,22:30,22:45,Arnulf,4,0,4
572,2022.03.06,22:45,23:00,Arnulf,1,0,1
573,2022.03.06,23:00,23:15,Arnulf,2,0,2
574,2022.03.06,23:15,23:30,Arnulf,1,0,1
575,2022.03.06,23:30,23:45,Arnulf,1,0,1
576,2022.03.06,23:45,00:00,Arnulf,0,0,0
577,2022.03.07,00:00,00:15,Arnulf,2,0,2
578,2022.03.07,00:15,00:30,Arnulf,1,0,1
579,2022.03.07,00:30,00:45,Arnulf,0,0,0
580,2022.03.07,00:45,01:00,Arnulf,1,0,1
581,2022.03.07,01:00,01:15,Arnulf,0,0,0
582,2022.03.07,01:15,01:30,Arnulf,0,0,0
583,2022.03.07,01:30,01:45,Arnulf,0,0,0
584,2022.03.07,01:45,02:00,Arnulf,0,0,0
585,2022.03.07,02:00,02:15,Arnulf,0,0,0
586,2022.03.07,02:15,02:30,Arnulf,1,0,1
587,2022.03.07,02:30,02:45,Arnulf,0,0,0
588,2022.03.07,02:45,03:00,Arnulf,0,0,0
589,2022.03.07,03:00,03:15,Arnulf,0,0,0